| time (UTC) | temp F | wind direction | speed knots | gust knots | rain 1hr in | rain 24hr in | rain mn in | humidity % | barometer mb |
| 20260510105036 | 49 | 107 | 0.0 | 1.7 | 0.00 | 0.00 | 0.00 | 91 | 1015.1 |
| 20260510104535 | 49 | 107 | 0.0 | 1.7 | 0.00 | 0.00 | 0.00 | 91 | 1015.1 |
| 20260510104019 | 49 | 107 | 0.0 | 0.0 | 0.00 | 0.00 | 0.00 | 90 | 1014.9 |
| 20260510103502 | 49 | 107 | 0.0 | 0.0 | 0.00 | 0.00 | 0.00 | 90 | 1014.8 |
| 20260510103101 | 50 | 107 | 0.0 | 0.9 | 0.00 | 0.00 | 0.00 | 90 | 1014.7 |
| 20260510102540 | 50 | 107 | 0.0 | 0.9 | 0.00 | 0.00 | 0.00 | 90 | 1014.7 |
| 20260510102020 | 50 | 107 | 0.0 | 0.9 | 0.00 | 0.00 | 0.00 | 90 | 1014.6 |
| 20260510101529 | 50 | 107 | 0.0 | 0.9 | 0.00 | 0.00 | 0.00 | 90 | 1014.5 |
| 20260510101001 | 50 | 107 | 0.0 | 0.0 | 0.00 | 0.00 | 0.00 | 90 | 1014.6 |
| 20260510100548 | 50 | 107 | 0.0 | 0.0 | 0.00 | 0.00 | 0.00 | 90 | 1014.4 |
| 20260510100007 | 50 | 107 | 0.0 | 0.0 | 0.00 | 0.00 | 0.00 | 90 | 1014.3 |
| 20260510095554 | 50 | 107 | 0.0 | 0.0 | 0.00 | 0.00 | 0.00 | 90 | 1014.4 |
| 20260510095039 | 50 | 107 | 0.0 | 3.5 | 0.00 | 0.00 | 0.00 | 90 | 1014.2 |
| 20260510094603 | 50 | 107 | 0.0 | 3.5 | 0.00 | 0.00 | 0.00 | 90 | 1014.2 |
| 20260510094044 | 51 | 82 | 0.0 | 1.7 | 0.00 | 0.00 | 0.00 | 90 | 1014.2 |
| 20260510093528 | 51 | 118 | 0.0 | 1.7 | 0.00 | 0.00 | 0.00 | 90 | 1014.2 |
| 20260510093024 | 51 | 118 | 0.9 | 1.7 | 0.00 | 0.00 | 0.00 | 90 | 1014.1 |
| 20260510092508 | 51 | 355 | 0.0 | 0.0 | 0.00 | 0.00 | 0.00 | 90 | 1014.1 |
| 20260510092055 | 51 | 355 | 0.0 | 0.0 | 0.00 | 0.00 | 0.00 | 90 | 1014.1 |
| 20260510091515 | 51 | 355 | 0.0 | 0.0 | 0.00 | 0.00 | 0.00 | 90 | 1013.9 |
| 20260510091102 | 51 | 355 | 0.0 | 0.0 | 0.00 | 0.00 | 0.00 | 90 | 1013.8 |
| 20260510090547 | 51 | 355 | 0.0 | 0.0 | 0.00 | 0.00 | 0.00 | 89 | 1013.7 |
| 20260510090045 | 51 | 355 | 0.0 | 0.0 | 0.00 | 0.00 | 0.00 | 89 | 1013.8 |
| 20260510085525 | 51 | 355 | 0.0 | 0.0 | 0.00 | 0.00 | 0.00 | 89 | 1013.6 |
| 20260510085009 | 51 | 355 | 0.0 | 0.0 | 0.00 | 0.00 | 0.00 | 89 | 1013.6 |
| 20260510084510 | 51 | 355 | 0.0 | 0.0 | 0.00 | 0.00 | 0.00 | 89 | 1013.5 |
| 20260510084057 | 51 | 355 | 0.0 | 0.0 | 0.00 | 0.00 | 0.00 | 89 | 1013.6 |
| 20260510083542 | 51 | 355 | 0.0 | 0.0 | 0.00 | 0.00 | 0.00 | 89 | 1013.6 |
| 20260510083052 | 52 | 355 | 0.0 | 0.0 | 0.00 | 0.00 | 0.00 | 89 | 1013.4 |
| 20260510082519 | 52 | 355 | 0.0 | 0.0 | 0.00 | 0.00 | 0.00 | 89 | 1013.5 |
| 20260510082001 | 52 | 355 | 0.0 | 0.0 | 0.00 | 0.00 | 0.00 | 89 | 1013.5 |
| 20260510081524 | 52 | 355 | 0.0 | 0.0 | 0.00 | 0.00 | 0.00 | 89 | 1013.5 |
| 20260510081008 | 52 | 355 | 0.0 | 0.0 | 0.00 | 0.00 | 0.00 | 88 | 1013.5 |
| 20260510080557 | 52 | 355 | 0.0 | 0.0 | 0.00 | 0.00 | 0.00 | 88 | 1013.6 |
| 20260510080053 | 52 | 355 | 0.0 | 0.0 | 0.00 | 0.00 | 0.00 | 88 | 1013.3 |
| 20260510075539 | 52 | 355 | 0.0 | 0.0 | 0.00 | 0.00 | 0.00 | 88 | 1013.4 |
| 20260510075021 | 52 | 355 | 0.0 | 0.0 | 0.00 | 0.00 | 0.00 | 87 | 1013.5 |
| 20260510074545 | 52 | 355 | 0.0 | 0.0 | 0.00 | 0.00 | 0.00 | 87 | 1013.5 |
| 20260510074029 | 52 | 355 | 0.0 | 0.0 | 0.00 | 0.00 | 0.00 | 87 | 1013.5 |
| 20260510073516 | 52 | 355 | 0.0 | 0.0 | 0.00 | 0.00 | 0.00 | 87 | 1013.5 |
| 20260510073034 | 52 | 355 | 0.0 | 0.0 | 0.00 | 0.00 | 0.00 | 87 | 1013.4 |
| 20260510072516 | 52 | 355 | 0.0 | 0.0 | 0.00 | 0.00 | 0.00 | 87 | 1013.5 |
| 20260510072104 | 52 | 355 | 0.0 | 0.0 | 0.00 | 0.00 | 0.00 | 87 | 1013.5 |
| 20260510071602 | 52 | 355 | 0.0 | 0.0 | 0.00 | 0.00 | 0.00 | 87 | 1013.6 |
| 20260510071045 | 52 | 355 | 0.0 | 0.0 | 0.00 | 0.00 | 0.00 | 87 | 1013.5 |
| 20260510070528 | 52 | 355 | 0.0 | 0.0 | 0.00 | 0.00 | 0.00 | 87 | 1013.5 |
| 20260510070051 | 52 | 355 | 0.0 | 0.0 | 0.00 | 0.00 | 0.00 | 87 | 1013.5 |
| 20260510065537 | 52 | 355 | 0.0 | 0.0 | 0.00 | 0.00 | 0.00 | 86 | 1013.5 |
| 20260510065019 | 52 | 355 | 0.0 | 0.0 | 0.00 | 0.00 | 0.00 | 86 | 1013.5 |
| 20260510064528 | 52 | 355 | 0.0 | 0.0 | 0.00 | 0.00 | 0.00 | 86 | 1013.4 |
| 20260510064000 | 52 | 355 | 0.0 | 0.0 | 0.00 | 0.00 | 0.00 | 86 | 1013.4 |
| 20260510063548 | 52 | 355 | 0.0 | 0.0 | 0.00 | 0.00 | 0.00 | 86 | 1013.4 |
| 20260510063007 | 52 | 36 | 0.0 | 0.0 | 0.00 | 0.00 | 0.00 | 86 | 1013.5 |
| 20260510062552 | 52 | 36 | 0.0 | 0.0 | 0.00 | 0.00 | 0.00 | 86 | 1013.5 |
| 20260510062038 | 53 | 36 | 0.0 | 0.0 | 0.00 | 0.00 | 0.00 | 86 | 1013.5 |
| 20260510061537 | 53 | 36 | 0.0 | 0.0 | 0.00 | 0.00 | 0.00 | 85 | 1013.7 |
| 20260510061021 | 53 | 36 | 0.0 | 0.0 | 0.00 | 0.00 | 0.00 | 85 | 1013.6 |
| 20260510060505 | 53 | 36 | 0.0 | 0.0 | 0.00 | 0.00 | 0.00 | 85 | 1013.5 |
| 20260510060002 | 53 | 36 | 0.0 | 0.0 | 0.00 | 0.00 | 0.00 | 85 | 1013.7 |
| 20260510055550 | 53 | 36 | 0.0 | 0.0 | 0.00 | 0.00 | 0.00 | 84 | 1013.6 |
| 20260510055031 | 53 | 36 | 0.0 | 0.0 | 0.00 | 0.00 | 0.00 | 84 | 1013.7 |
| 20260510054532 | 53 | 36 | 0.0 | 0.0 | 0.00 | 0.00 | 0.00 | 84 | 1013.7 |
| 20260510054016 | 53 | 36 | 0.0 | 0.0 | 0.00 | 0.00 | 0.00 | 83 | 1013.9 |
| 20260510053602 | 53 | 36 | 0.0 | 0.0 | 0.00 | 0.00 | 0.00 | 83 | 1013.8 |
| 20260510053024 | 53 | 36 | 0.0 | 0.0 | 0.00 | 0.00 | 0.00 | 82 | 1013.9 |
| 20260510052502 | 53 | 36 | 0.0 | 0.0 | 0.00 | 0.00 | 0.00 | 82 | 1013.9 |
| 20260510052049 | 53 | 36 | 0.0 | 0.0 | 0.00 | 0.00 | 0.00 | 82 | 1014.0 |
| 20260510051554 | 54 | 315 | 0.0 | 0.0 | 0.00 | 0.00 | 0.00 | 82 | 1014.0 |
| 20260510051037 | 54 | 315 | 0.0 | 0.0 | 0.00 | 0.00 | 0.00 | 82 | 1013.9 |
| 20260510050518 | 54 | 315 | 0.0 | 0.0 | 0.00 | 0.00 | 0.00 | 82 | 1013.9 |
| 20260510050016 | 54 | 315 | 0.0 | 0.0 | 0.00 | 0.00 | 0.00 | 82 | 1013.8 |
| 20260510045605 | 54 | 315 | 0.0 | 0.9 | 0.00 | 0.00 | 0.00 | 82 | 1013.9 |
| 20260510045046 | 54 | 315 | 0.0 | 2.6 | 0.00 | 0.00 | 0.00 | 81 | 1013.8 |
| 20260510044514 | 54 | 5 | 0.0 | 2.6 | 0.00 | 0.00 | 0.00 | 82 | 1013.9 |
| 20260510044049 | 54 | 50 | 0.0 | 0.9 | 0.00 | 0.00 | 0.00 | 81 | 1013.9 |
| 20260510043533 | 54 | 50 | 0.0 | 0.9 | 0.00 | 0.00 | 0.00 | 81 | 1013.9 |
| 20260510043029 | 54 | 50 | 0.0 | 0.9 | 0.00 | 0.00 | 0.00 | 80 | 1013.7 |
| 20260510042513 | 54 | 50 | 0.0 | 0.9 | 0.00 | 0.00 | 0.00 | 80 | 1013.7 |
| 20260510042059 | 54 | 50 | 0.0 | 1.7 | 0.00 | 0.00 | 0.00 | 80 | 1013.7 |
| 20260510041520 | 54 | 50 | 0.0 | 1.7 | 0.00 | 0.00 | 0.00 | 80 | 1013.6 |
| 20260510041002 | 54 | 251 | 0.0 | 1.7 | 0.00 | 0.00 | 0.00 | 80 | 1013.6 |
| 20260510040551 | 54 | 251 | 0.0 | 0.9 | 0.00 | 0.00 | 0.00 | 80 | 1013.5 |
| 20260510040039 | 54 | 251 | 0.0 | 1.7 | 0.00 | 0.00 | 0.00 | 80 | 1013.6 |
| 20260510035520 | 55 | 251 | 0.0 | 1.7 | 0.00 | 0.00 | 0.00 | 80 | 1013.4 |
| 20260510035004 | 55 | 251 | 0.0 | 3.5 | 0.00 | 0.00 | 0.00 | 80 | 1013.5 |
| 20260510034528 | 55 | 251 | 0.9 | 3.5 | 0.00 | 0.00 | 0.00 | 79 | 1013.4 |
| 20260510034011 | 55 | 261 | 0.0 | 0.0 | 0.00 | 0.00 | 0.00 | 79 | 1013.3 |
| 20260510033557 | 55 | 360 | 0.0 | 0.0 | 0.00 | 0.00 | 0.00 | 78 | 1013.1 |
| 20260510033119 | 55 | 360 | 0.0 | 0.0 | 0.00 | 0.00 | 0.00 | 78 | 1013.3 |
| 20260510032538 | 55 | 360 | 0.0 | 0.0 | 0.00 | 0.00 | 0.00 | 78 | 1013.2 |
| 20260510032022 | 55 | 360 | 0.0 | 0.0 | 0.00 | 0.00 | 0.00 | 78 | 1013.3 |
| 20260510031523 | 55 | 360 | 0.0 | 0.0 | 0.00 | 0.00 | 0.00 | 78 | 1013.3 |
| 20260510031005 | 55 | 253 | 0.0 | 1.7 | 0.00 | 0.00 | 0.00 | 78 | 1013.2 |
| 20260510030550 | 55 | 253 | 0.0 | 1.7 | 0.00 | 0.00 | 0.00 | 78 | 1013.2 |
| 20260510030018 | 55 | 253 | 0.0 | 0.0 | 0.00 | 0.00 | 0.00 | 77 | 1013.0 |
| 20260510025556 | 56 | 253 | 0.0 | 0.0 | 0.00 | 0.00 | 0.00 | 77 | 1013.0 |
| 20260510025040 | 56 | 253 | 0.0 | 0.0 | 0.00 | 0.00 | 0.00 | 77 | 1013.0 |
| 20260510024539 | 56 | 253 | 0.0 | 0.0 | 0.00 | 0.00 | 0.00 | 76 | 1013.0 |
| 20260510024022 | 56 | 253 | 0.0 | 0.0 | 0.00 | 0.00 | 0.00 | 75 | 1013.0 |
| 20260510023510 | 56 | 253 | 0.0 | 0.9 | 0.00 | 0.00 | 0.00 | 75 | 1013.0 |
| 20260510023030 | 57 | 250 | 0.0 | 0.0 | 0.00 | 0.00 | 0.00 | 74 | 1013.0 |
| 20260510022506 | 57 | 247 | 0.0 | 0.0 | 0.00 | 0.00 | 0.00 | 74 | 1013.0 |
| 20260510022053 | 57 | 243 | 0.0 | 0.0 | 0.00 | 0.00 | 0.00 | 73 | 1012.9 |
| 20260510021519 | 57 | 243 | 0.0 | 0.0 | 0.00 | 0.00 | 0.00 | 73 | 1012.9 |
| 20260510021059 | 57 | 243 | 0.0 | 0.0 | 0.00 | 0.00 | 0.00 | 73 | 1012.7 |
| 20260510020543 | 58 | 243 | 0.0 | 0.0 | 0.00 | 0.00 | 0.00 | 72 | 1012.7 |
| 20260510020042 | 58 | 243 | 0.0 | 0.0 | 0.00 | 0.00 | 0.00 | 72 | 1012.7 |
| 20260510015527 | 58 | 243 | 0.0 | 0.0 | 0.00 | 0.00 | 0.00 | 72 | 1012.6 |
| 20260510015010 | 58 | 243 | 0.0 | 1.7 | 0.00 | 0.00 | 0.00 | 72 | 1012.6 |
| 20260510014533 | 58 | 243 | 0.0 | 1.7 | 0.00 | 0.00 | 0.00 | 71 | 1012.6 |
| 20260510014019 | 58 | 243 | 0.0 | 1.7 | 0.00 | 0.00 | 0.00 | 71 | 1012.4 |
| 20260510013502 | 59 | 243 | 0.0 | 1.7 | 0.00 | 0.00 | 0.00 | 70 | 1012.5 |
| 20260510013022 | 59 | 243 | 0.0 | 1.7 | 0.00 | 0.00 | 0.00 | 70 | 1012.4 |
| 20260510012506 | 59 | 243 | 0.0 | 1.7 | 0.00 | 0.00 | 0.00 | 69 | 1012.3 |
| 20260510012054 | 59 | 243 | 0.0 | 2.6 | 0.00 | 0.00 | 0.00 | 69 | 1012.2 |
| 20260510011553 | 59 | 244 | 0.0 | 2.6 | 0.00 | 0.00 | 0.00 | 69 | 1012.0 |
| 20260510011036 | 60 | 247 | 0.0 | 1.7 | 0.00 | 0.00 | 0.00 | 68 | 1011.9 |
| 20260510010520 | 60 | 159 | 0.0 | 0.0 | 0.00 | 0.00 | 0.00 | 68 | 1011.9 |
| 20260510010017 | 60 | 159 | 0.0 | 1.7 | 0.00 | 0.00 | 0.00 | 67 | 1011.7 |
| 20260510005502 | 60 | 240 | 0.0 | 2.6 | 0.00 | 0.00 | 0.00 | 67 | 1011.8 |
| 20260510005047 | 60 | 240 | 0.0 | 1.7 | 0.00 | 0.00 | 0.00 | 67 | 1011.7 |
| 20260510004508 | 61 | 240 | 0.0 | 2.6 | 0.00 | 0.00 | 0.00 | 67 | 1011.5 |
| 20260510004055 | 61 | 254 | 0.9 | 2.6 | 0.00 | 0.00 | 0.00 | 66 | 1011.5 |
| 20260510003535 | 61 | 273 | 0.9 | 2.6 | 0.00 | 0.00 | 0.00 | 66 | 1011.3 |
| 20260510003032 | 61 | 255 | 0.0 | 0.9 | 0.00 | 0.00 | 0.00 | 66 | 1011.3 |
| 20260510002515 | 62 | 255 | 0.0 | 1.7 | 0.00 | 0.00 | 0.00 | 65 | 1011.1 |
| 20260510002103 | 62 | 255 | 0.9 | 1.7 | 0.00 | 0.00 | 0.00 | 64 | 1011.1 |
| 20260510001522 | 62 | 265 | 0.0 | 1.7 | 0.00 | 0.00 | 0.00 | 64 | 1011.1 |
| 20260510001006 | 63 | 269 | 0.0 | 1.7 | 0.00 | 0.00 | 0.00 | 63 | 1011.1 |
| 20260510000553 | 63 | 269 | 0.0 | 1.7 | 0.00 | 0.00 | 0.00 | 62 | 1011.0 |
| 20260510000010 | 64 | 267 | 0.0 | 1.7 | 0.00 | 0.00 | 0.00 | 61 | 1011.0 |
| 20260509235557 | 64 | 268 | 0.0 | 1.7 | 0.00 | 0.00 | 0.00 | 60 | 1011.0 |
| 20260509235043 | 64 | 254 | 0.0 | 2.6 | 0.00 | 0.00 | 0.00 | 59 | 1010.9 |
| 20260509234544 | 65 | 246 | 0.0 | 2.6 | 0.00 | 0.00 | 0.00 | 59 | 1011.0 |
| 20260509234025 | 65 | 355 | 0.0 | 3.5 | 0.00 | 0.00 | 0.00 | 58 | 1011.0 |
| 20260509233510 | 65 | 299 | 0.9 | 3.5 | 0.00 | 0.00 | 0.00 | 57 | 1011.0 |
| 20260509233030 | 66 | 82 | 0.0 | 3.5 | 0.00 | 0.00 | 0.00 | 57 | 1010.8 |
| 20260509232514 | 66 | 227 | 0.0 | 2.6 | 0.00 | 0.00 | 0.00 | 56 | 1010.7 |
| 20260509232101 | 66 | 139 | 0.0 | 3.5 | 0.00 | 0.00 | 0.00 | 56 | 1010.9 |
| 20260509231521 | 67 | 123 | 0.0 | 3.5 | 0.00 | 0.00 | 0.00 | 55 | 1010.8 |
| 20260509231004 | 67 | 317 | 0.0 | 5.2 | 0.00 | 0.00 | 0.00 | 54 | 1010.8 |
| 20260509230551 | 67 | 315 | 1.7 | 5.2 | 0.00 | 0.00 | 0.00 | 54 | 1010.8 |
| 20260509230053 | 67 | 311 | 0.9 | 6.1 | 0.00 | 0.00 | 0.00 | 53 | 1010.9 |
| 20260509225535 | 67 | 268 | 0.9 | 5.2 | 0.00 | 0.00 | 0.00 | 53 | 1010.9 |
| 20260509225014 | 68 | 112 | 1.7 | 4.3 | 0.00 | 0.00 | 0.00 | 53 | 1011.0 |
| 20260509224546 | 68 | 248 | 0.0 | 3.5 | 0.00 | 0.00 | 0.00 | 55 | 1011.0 |
| 20260509224021 | 67 | 14 | 0.9 | 6.1 | 0.00 | 0.00 | 0.00 | 53 | 1011.0 |
| 20260509223509 | 67 | 207 | 2.6 | 6.1 | 0.00 | 0.00 | 0.00 | 53 | 1011.1 |
| 20260509223003 | 67 | 55 | 0.0 | 7.0 | 0.00 | 0.00 | 0.00 | 54 | 1011.2 |
| 20260509222551 | 67 | 343 | 0.9 | 10.4 | 0.00 | 0.00 | 0.00 | 53 | 1011.2 |
| 20260509222036 | 67 | 246 | 1.7 | 10.4 | 0.00 | 0.00 | 0.00 | 53 | 1011.2 |
| 20260509221533 | 67 | 47 | 0.9 | 5.2 | 0.00 | 0.00 | 0.00 | 54 | 1011.1 |
| 20260509221017 | 67 | 219 | 1.7 | 5.2 | 0.00 | 0.00 | 0.00 | 53 | 1011.2 |
| 20260509220603 | 67 | 81 | 0.9 | 5.2 | 0.00 | 0.00 | 0.00 | 54 | 1011.2 |
| 20260509220021 | 67 | 286 | 1.7 | 5.2 | 0.00 | 0.00 | 0.00 | 53 | 1011.2 |
| 20260509215507 | 67 | 338 | 1.7 | 4.3 | 0.00 | 0.00 | 0.00 | 53 | 1011.2 |
| 20260509215050 | 67 | 290 | 0.9 | 10.4 | 0.00 | 0.00 | 0.00 | 54 | 1011.3 |
| 20260509214546 | 67 | 322 | 2.6 | 10.4 | 0.00 | 0.00 | 0.00 | 54 | 1011.3 |
| 20260509214029 | 66 | 225 | 1.7 | 6.1 | 0.00 | 0.00 | 0.00 | 56 | 1011.3 |
| 20260509213508 | 66 | 42 | 0.0 | 6.1 | 0.00 | 0.00 | 0.00 | 57 | 1011.4 |
| 20260509213026 | 66 | 285 | 1.7 | 6.1 | 0.00 | 0.00 | 0.00 | 56 | 1011.4 |
| 20260509212510 | 66 | 148 | 1.7 | 7.0 | 0.00 | 0.00 | 0.00 | 56 | 1011.3 |
| 20260509212058 | 66 | 284 | 0.9 | 7.0 | 0.00 | 0.00 | 0.00 | 55 | 1011.3 |
| 20260509211558 | 67 | 183 | 3.5 | 7.8 | 0.00 | 0.00 | 0.00 | 55 | 1011.2 |
| 20260509211042 | 67 | 48 | 1.7 | 7.8 | 0.00 | 0.00 | 0.00 | 55 | 1011.1 |
| 20260509210525 | 67 | 165 | 1.7 | 7.0 | 0.00 | 0.00 | 0.00 | 54 | 1011.1 |
| 20260509210049 | 67 | 13 | 2.6 | 12.2 | 0.00 | 0.00 | 0.00 | 54 | 1011.0 |
| 20260509205528 | 67 | 331 | 4.3 | 12.2 | 0.00 | 0.00 | 0.00 | 54 | 1011.1 |
| 20260509205011 | 67 | 241 | 2.6 | 7.8 | 0.00 | 0.00 | 0.00 | 55 | 1011.0 |
| 20260509204511 | 66 | 120 | 3.5 | 7.8 | 0.00 | 0.00 | 0.00 | 55 | 1011.0 |
| 20260509204058 | 66 | 240 | 3.5 | 7.8 | 0.00 | 0.00 | 0.00 | 54 | 1011.1 |
| 20260509203544 | 66 | 243 | 1.7 | 8.7 | 0.00 | 0.00 | 0.00 | 56 | 1011.0 |
| 20260509203051 | 67 | 235 | 4.3 | 8.7 | 0.00 | 0.00 | 0.00 | 54 | 1011.0 |
| 20260509202522 | 67 | 265 | 2.6 | 5.2 | 0.00 | 0.00 | 0.00 | 56 | 1010.8 |
| 20260509202008 | 66 | 168 | 1.7 | 7.0 | 0.00 | 0.00 | 0.00 | 59 | 1011.0 |
| 20260509201528 | 65 | 224 | 3.5 | 8.7 | 0.00 | 0.00 | 0.00 | 58 | 1011.0 |
| 20260509201015 | 65 | 252 | 2.6 | 8.7 | 0.00 | 0.00 | 0.00 | 58 | 1011.1 |
| 20260509200559 | 65 | 229 | 0.9 | 6.1 | 0.00 | 0.00 | 0.00 | 58 | 1011.1 |
| 20260509200057 | 65 | 292 | 2.6 | 7.0 | 0.00 | 0.00 | 0.00 | 58 | 1011.1 |
| 20260509195542 | 65 | 182 | 2.6 | 7.0 | 0.00 | 0.00 | 0.00 | 58 | 1011.3 |
| 20260509195022 | 65 | 251 | 3.5 | 7.0 | 0.00 | 0.00 | 0.00 | 58 | 1011.1 |
| 20260509194526 | 65 | 355 | 1.7 | 6.1 | 0.00 | 0.00 | 0.00 | 58 | 1011.2 |
| 20260509194007 | 65 | 265 | 4.3 | 7.8 | 0.00 | 0.00 | 0.00 | 57 | 1011.2 |
| 20260509193555 | 65 | 336 | 0.9 | 8.7 | 0.00 | 0.00 | 0.00 | 57 | 1011.3 |
| 20260509193053 | 65 | 282 | 1.7 | 8.7 | 0.00 | 0.00 | 0.00 | 56 | 1011.3 |
| 20260509192534 | 65 | 241 | 2.6 | 6.1 | 0.00 | 0.00 | 0.00 | 55 | 1011.2 |
| 20260509192018 | 65 | 348 | 1.7 | 8.7 | 0.00 | 0.00 | 0.00 | 56 | 1011.2 |
| 20260509191518 | 65 | 327 | 3.5 | 11.3 | 0.00 | 0.00 | 0.00 | 55 | 1011.1 |
| 20260509191104 | 65 | 283 | 2.6 | 11.3 | 0.00 | 0.00 | 0.00 | 56 | 1011.2 |
| 20260509190546 | 65 | 15 | 1.7 | 7.8 | 0.00 | 0.00 | 0.00 | 56 | 1011.2 |
| 20260509190009 | 65 | 309 | 1.7 | 8.7 | 0.00 | 0.00 | 0.00 | 56 | 1011.2 |
| 20260509185550 | 65 | 261 | 4.3 | 8.7 | 0.00 | 0.00 | 0.00 | 55 | 1011.2 |
| 20260509185034 | 65 | 350 | 2.6 | 7.8 | 0.00 | 0.00 | 0.00 | 57 | 1011.2 |
| 20260509184556 | 65 | 308 | 0.9 | 7.8 | 0.00 | 0.00 | 0.00 | 58 | 1011.2 |
| 20260509184039 | 64 | 320 | 1.7 | 6.1 | 0.00 | 0.00 | 0.00 | 59 | 1011.2 |
| 20260509183523 | 64 | 210 | 0.9 | 10.4 | 0.00 | 0.00 | 0.00 | 58 | 1011.3 |
| 20260509183019 | 64 | 232 | 4.3 | 10.4 | 0.00 | 0.00 | 0.00 | 57 | 1011.3 |
| 20260509182501 | 64 | 250 | 3.5 | 7.8 | 0.00 | 0.00 | 0.00 | 58 | 1011.3 |
| 20260509182049 | 64 | 297 | 0.9 | 7.0 | 0.00 | 0.00 | 0.00 | 58 | 1011.3 |
| 20260509181509 | 64 | 222 | 2.6 | 9.6 | 0.00 | 0.00 | 0.00 | 57 | 1011.4 |
| 20260509181056 | 64 | 267 | 1.7 | 9.6 | 0.00 | 0.00 | 0.00 | 56 | 1011.3 |
| 20260509180539 | 64 | 225 | 0.9 | 8.7 | 0.00 | 0.00 | 0.00 | 58 | 1011.4 |
| 20260509180105 | 64 | 126 | 4.3 | 8.7 | 0.00 | 0.00 | 0.00 | 57 | 1011.4 |
| 20260509175521 | 64 | 25 | 0.9 | 5.2 | 0.00 | 0.00 | 0.00 | 57 | 1011.4 |
| 20260509175003 | 64 | 317 | 1.7 | 8.7 | 0.00 | 0.00 | 0.00 | 57 | 1011.4 |
| 20260509174501 | 64 | 196 | 3.5 | 9.6 | 0.00 | 0.00 | 0.00 | 56 | 1011.5 |
| 20260509174048 | 64 | 252 | 1.7 | 9.6 | 0.00 | 0.00 | 0.00 | 57 | 1011.6 |
| 20260509173531 | 64 | 29 | 3.5 | 7.8 | 0.00 | 0.00 | 0.00 | 56 | 1011.5 |
| 20260509173107 | 64 | 27 | 0.9 | 5.2 | 0.00 | 0.00 | 0.00 | 57 | 1011.4 |
| 20260509172534 | 64 | 76 | 0.9 | 8.7 | 0.00 | 0.00 | 0.00 | 57 | 1011.5 |
| 20260509172016 | 64 | 50 | 0.9 | 7.8 | 0.00 | 0.00 | 0.00 | 55 | 1011.6 |
| 20260509171514 | 64 | 66 | 3.5 | 7.8 | 0.00 | 0.00 | 0.00 | 54 | 1011.6 |
| 20260509171102 | 64 | 355 | 1.7 | 6.1 | 0.00 | 0.00 | 0.00 | 54 | 1011.6 |
| 20260509170546 | 65 | 100 | 2.6 | 11.3 | 0.00 | 0.00 | 0.00 | 53 | 1011.5 |
| 20260509170005 | 65 | 77 | 6.1 | 9.6 | 0.00 | 0.00 | 0.00 | 53 | 1011.6 |
| 20260509165552 | 64 | 63 | 3.5 | 10.4 | 0.00 | 0.00 | 0.00 | 54 | 1011.6 |
| 20260509165034 | 64 | 146 | 4.3 | 10.4 | 0.00 | 0.00 | 0.00 | 54 | 1011.6 |
| 20260509164531 | 64 | 231 | 3.5 | 9.6 | 0.00 | 0.00 | 0.00 | 54 | 1011.7 |
| 20260509164011 | 63 | 29 | 0.9 | 7.8 | 0.00 | 0.00 | 0.00 | 56 | 1011.8 |
| 20260509163557 | 63 | 90 | 0.0 | 7.8 | 0.00 | 0.00 | 0.00 | 55 | 1011.8 |
| 20260509163021 | 63 | 80 | 1.7 | 7.0 | 0.00 | 0.00 | 0.00 | 57 | 1011.9 |
| 20260509162559 | 62 | 40 | 1.7 | 7.0 | 0.00 | 0.00 | 0.00 | 55 | 1011.8 |
| 20260509162040 | 62 | 91 | 3.5 | 7.0 | 0.00 | 0.00 | 0.00 | 54 | 1011.7 |
| 20260509161541 | 62 | 97 | 1.7 | 7.8 | 0.00 | 0.00 | 0.00 | 56 | 1011.7 |
| 20260509161017 | 62 | 48 | 1.7 | 3.5 | 0.00 | 0.00 | 0.00 | 55 | 1011.9 |
| 20260509160502 | 61 | 27 | 0.9 | 5.2 | 0.00 | 0.00 | 0.00 | 57 | 1011.7 |
| 20260509160057 | 61 | 92 | 0.9 | 6.1 | 0.00 | 0.00 | 0.00 | 57 | 1011.7 |
| 20260509155543 | 60 | 40 | 3.5 | 6.1 | 0.00 | 0.00 | 0.00 | 58 | 1011.7 |
| 20260509155025 | 60 | 30 | 1.7 | 6.1 | 0.00 | 0.00 | 0.00 | 59 | 1011.7 |
| 20260509154517 | 60 | 92 | 0.9 | 6.1 | 0.00 | 0.00 | 0.00 | 60 | 1011.8 |
| 20260509154103 | 60 | 121 | 3.5 | 7.0 | 0.00 | 0.00 | 0.00 | 57 | 1011.8 |
| 20260509153550 | 60 | 123 | 2.6 | 7.0 | 0.00 | 0.00 | 0.00 | 58 | 1011.9 |
| 20260509153037 | 60 | 124 | 1.7 | 6.1 | 0.00 | 0.00 | 0.00 | 58 | 1011.9 |
| 20260509152522 | 60 | 121 | 1.7 | 4.3 | 0.00 | 0.00 | 0.00 | 60 | 1012.1 |
| 20260509152006 | 60 | 30 | 1.7 | 3.5 | 0.00 | 0.00 | 0.00 | 60 | 1012.1 |
| 20260509151526 | 60 | 132 | 1.7 | 5.2 | 0.00 | 0.00 | 0.00 | 59 | 1012.1 |
| 20260509151011 | 60 | 89 | 2.6 | 5.2 | 0.00 | 0.00 | 0.00 | 60 | 1012.1 |
| 20260509150600 | 60 | 89 | 0.9 | 3.5 | 0.00 | 0.00 | 0.00 | 60 | 1012.1 |
| 20260509150055 | 60 | 192 | 0.0 | 0.0 | 0.00 | 0.00 | 0.00 | 63 | 1012.3 |
| 20260509145541 | 60 | 192 | 0.0 | 0.0 | 0.00 | 0.00 | 0.00 | 64 | 1012.3 |
| 20260509145027 | 60 | 192 | 0.0 | 0.0 | 0.00 | 0.00 | 0.00 | 65 | 1012.5 |
| 20260509144532 | 60 | 192 | 0.0 | 0.0 | 0.00 | 0.00 | 0.00 | 66 | 1012.6 |
| 20260509144016 | 60 | 192 | 0.0 | 0.0 | 0.00 | 0.00 | 0.00 | 63 | 1012.3 |
| 20260509143504 | 60 | 355 | 0.0 | 0.0 | 0.00 | 0.00 | 0.00 | 65 | 1012.2 |
| 20260509143010 | 59 | 113 | 0.0 | 0.0 | 0.00 | 0.00 | 0.00 | 66 | 1012.3 |
| 20260509142555 | 59 | 178 | 0.0 | 3.5 | 0.00 | 0.00 | 0.00 | 66 | 1012.1 |
| 20260509142044 | 59 | 87 | 0.0 | 4.3 | 0.00 | 0.00 | 0.00 | 64 | 1012.1 |
| 20260509141516 | 59 | 105 | 0.9 | 3.5 | 0.00 | 0.00 | 0.00 | 68 | 1012.2 |
| 20260509141059 | 59 | 88 | 0.9 | 5.2 | 0.00 | 0.00 | 0.00 | 66 | 1012.1 |
| 20260509140547 | 58 | 96 | 0.9 | 5.2 | 0.00 | 0.00 | 0.00 | 68 | 1012.2 |
| 20260509140054 | 58 | 43 | 0.9 | 7.0 | 0.00 | 0.00 | 0.00 | 68 | 1012.1 |
| 20260509135550 | 58 | 86 | 2.6 | 7.0 | 0.00 | 0.00 | 0.00 | 66 | 1012.2 |
| 20260509135041 | 58 | 74 | 0.9 | 4.3 | 0.00 | 0.00 | 0.00 | 67 | 1012.2 |
| 20260509134552 | 58 | 173 | 0.0 | 3.5 | 0.00 | 0.00 | 0.00 | 68 | 1012.1 |
| 20260509134049 | 57 | 74 | 0.0 | 3.5 | 0.00 | 0.00 | 0.00 | 70 | 1012.1 |
| 20260509133540 | 57 | 44 | 0.0 | 3.5 | 0.00 | 0.00 | 0.00 | 71 | 1012.3 |
| 20260509133105 | 56 | 83 | 0.0 | 3.5 | 0.00 | 0.00 | 0.00 | 71 | 1012.2 |
| 20260509132548 | 56 | 71 | 0.9 | 3.5 | 0.00 | 0.00 | 0.00 | 71 | 1012.3 |
| 20260509132040 | 55 | 94 | 0.0 | 2.6 | 0.00 | 0.00 | 0.00 | 72 | 1012.5 |
| 20260509131553 | 55 | 186 | 0.0 | 2.6 | 0.00 | 0.00 | 0.00 | 72 | 1012.4 |
| 20260509131047 | 55 | 103 | 0.0 | 2.6 | 0.00 | 0.00 | 0.00 | 72 | 1012.6 |
| 20260509130541 | 54 | 305 | 0.0 | 0.9 | 0.00 | 0.00 | 0.00 | 75 | 1012.5 |
| 20260509130101 | 54 | 305 | 0.0 | 0.9 | 0.00 | 0.00 | 0.00 | 76 | 1012.7 |
| 20260509125548 | 53 | 305 | 0.0 | 0.9 | 0.00 | 0.00 | 0.00 | 76 | 1012.6 |
| 20260509125041 | 53 | 305 | 0.0 | 0.9 | 0.00 | 0.00 | 0.00 | 77 | 1012.6 |
| 20260509124552 | 53 | 296 | 0.0 | 0.9 | 0.00 | 0.00 | 0.00 | 78 | 1012.4 |
| 20260509124045 | 52 | 296 | 0.0 | 1.7 | 0.00 | 0.00 | 0.00 | 79 | 1012.5 |
| 20260509123540 | 52 | 294 | 0.0 | 0.0 | 0.00 | 0.00 | 0.00 | 79 | 1012.6 |
| 20260509123054 | 52 | 294 | 0.0 | 0.0 | 0.00 | 0.00 | 0.00 | 79 | 1012.6 |
| 20260509122547 | 52 | 294 | 0.0 | 0.0 | 0.00 | 0.00 | 0.00 | 78 | 1012.6 |
| 20260509122043 | 52 | 294 | 0.0 | 0.0 | 0.00 | 0.00 | 0.00 | 78 | 1012.7 |
| 20260509121514 | 51 | 294 | 0.0 | 0.0 | 0.00 | 0.00 | 0.00 | 78 | 1012.6 |
| 20260509121008 | 51 | 294 | 0.0 | 0.0 | 0.00 | 0.00 | 0.00 | 78 | 1012.6 |
| 20260509120501 | 51 | 294 | 0.0 | 0.0 | 0.00 | 0.00 | 0.00 | 79 | 1012.7 |
| 20260509120022 | 51 | 288 | 0.0 | 0.0 | 0.00 | 0.00 | 0.00 | 78 | 1012.7 |
| 20260509115510 | 51 | 288 | 0.0 | 0.0 | 0.00 | 0.00 | 0.00 | 77 | 1012.5 |
| 20260509115005 | 51 | 288 | 0.0 | 0.0 | 0.00 | 0.00 | 0.00 | 77 | 1012.5 |
| 20260509114520 | 51 | 288 | 0.0 | 0.0 | 0.00 | 0.00 | 0.00 | 77 | 1012.6 |
| 20260509114017 | 51 | 285 | 0.0 | 0.0 | 0.00 | 0.00 | 0.00 | 77 | 1012.6 |
| 20260509113509 | 51 | 284 | 0.0 | 0.0 | 0.00 | 0.00 | 0.00 | 76 | 1012.7 |
| 20260509113044 | 51 | 284 | 0.0 | 0.0 | 0.00 | 0.00 | 0.00 | 76 | 1012.6 |
| 20260509112538 | 51 | 271 | 0.0 | 0.0 | 0.00 | 0.00 | 0.00 | 76 | 1012.7 |
| 20260509112031 | 51 | 271 | 0.0 | 0.0 | 0.00 | 0.00 | 0.00 | 76 | 1012.6 |
| 20260509111543 | 51 | 271 | 0.0 | 0.0 | 0.00 | 0.00 | 0.00 | 75 | 1012.6 |
| 20260509111038 | 51 | 271 | 0.0 | 0.0 | 0.00 | 0.00 | 0.00 | 75 | 1012.6 |
| 20260509110533 | 51 | 271 | 0.0 | 0.0 | 0.00 | 0.00 | 0.00 | 75 | 1012.7 |
| 20260509110046 | 51 | 271 | 0.0 | 0.0 | 0.00 | 0.00 | 0.00 | 74 | 1012.7 |
| 20260509105538 | 51 | 271 | 0.0 | 0.0 | 0.00 | 0.00 | 0.00 | 74 | 1012.7 |